Regional Weather Roundup
Issued by NWS

Home | Current Version | Previous Version | Graphics & Text | Print | Product List | Glossary On
Versions: 1 2 3 4 5 6 7 8 9 10 11 12 13 14 15 16 17 18 19 20 21 22 23 24 25 26 27 28 29 30 31 32 33 34 35 36 37 38 39 40 41 42 43 44 45 46 47 48 49 50
000
ASUS45 KABQ 272101
RWRNM
NEW MEXICO REGIONAL WEATHER ROUNDUP
NATIONAL WEATHER SERVICE ALBUQUERQUE NM
300 PM MDT THU APR 27 2017

NOTE: "FAIR" MEANS FEW OR NO CLOUDS BELOW 12,000 FEET AGL WITH NO
       SIGNIFICANT WEATHER OR OBSTRUCTIONS TO VISION.

      THIS PRODUCT IS RELEASED AS TWO VERSIONS.  ONE VERSION NEAR
      THE TOP OF THE HOUR CONTAINING PRELIMINARY DATA FROM ALBUQUERQUE
      AND OTHER STATIONS.  A FINAL VERSION WITH ADDITIONAL DATA IS
      ISSUED ABOUT 10 MINUTES AFTER THE HOUR.

NMZ501-503-504-510>518-272200-
NORTHWEST PLATEAU/NORTHCENTRAL MOUNTAINS

CITY           SKY/WX    TMP DP  RH WIND       PRES   REMARKS
FARMINGTON     FAIR      57  35  43 NW17G28   29.65F
LOS ALAMOS     FAIR      57  28  33 SW10G23   29.68F
SANTA FE       FAIR      67  34  29 NW25G38   29.63F
TAOS             N/A     52  30  43 W26G39    29.66F
ANGEL FIRE     CLOUDY    37  29  72 W13G26    29.68F WCI  29

$$
NMZ402-403-502-505>509-272200-
WESTCENTRAL MOUNTAINS/SOUTHWEST MOUNTAINS

CITY           SKY/WX    TMP DP  RH WIND       PRES   REMARKS
GALLUP         FAIR      66  21  18 W30G48    29.68F
GRANTS         PTSUNNY   65  26  22 W22G36    29.69F
SILVER CITY    FAIR      75  30  19 W21G36    29.75F

$$
NMZ407-409-411-412-272200-
SOUTHERN DESERTS

CITY           SKY/WX    TMP DP  RH WIND       PRES   REMARKS
DEMING         FAIR      83  29  14 W25G44    29.68F
LAS CRUCES     FAIR      82  27  13 W30G44    29.69F
HOLLOMAN AFB   FAIR      83  28  13 SW21G28   29.65F
ALAMOGORDO     FAIR      82  28  14 SW22G29   29.64F
T OR C         FAIR      83  26  12 W18G33    29.59F

$$
NMZ519>523-272200-
CENTRAL VALLEYS/CENTRAL HIGHLANDS

CITY           SKY/WX    TMP DP  RH WIND       PRES   REMARKS
ALBUQUERQUE    PTSUNNY   67  33  28 W17G24    29.61F
DOUBLE EAGLE   PTSUNNY   64  34  32 W17G29    29.63F
MORIARTY ARPT  PTSUNNY   67  32  26 W21G32    29.65S
CLINES CORNERS PTSUNNY   62  30  29 NW28G40   29.65F
BELEN          PTSUNNY   76  25  14 W28G40    29.60F
SOCORRO        FAIR      82  26  13 W20G36    29.57F

$$
NMZ524>526-539-540-272200-
SOUTHCENTRAL MOUNTAINS

CITY           SKY/WX    TMP DP  RH WIND       PRES   REMARKS
RUIDOSO        NOT AVBL

$$
NMZ527>531-272200-
NORTHEAST HIGHLANDS/NORTHEAST PLAINS

CITY           SKY/WX    TMP DP  RH WIND       PRES   REMARKS
LAS VEGAS      FAIR      60  27  28 W30G39    29.62F
RATON          FAIR      60  29  30 W16G25    29.52F
CLAYTON        FAIR      64  36  35 NW20G33   29.49R

$$
NMZ532>537-272200-
EASTCENTRAL PLAINS

CITY           SKY/WX    TMP DP  RH WIND       PRES   REMARKS
SANTA ROSA     FAIR      76  31  19 W30G44    29.51F
TUCUMCARI      CLOUDY    76  30  18 W28G45    29.46F
CANNON AFB     FAIR      81  28  14 W29G44    29.50F
CLOVIS AIRPORT FAIR      81  32  17 W24G39    29.50F

$$
NMZ028-029-538-272200-
SOUTHEAST PLAINS

CITY           SKY/WX    TMP DP  RH WIND       PRES   REMARKS
ROSWELL        FAIR      86  29  12 W18G29    29.55F
ARTESIA        FAIR      88  34  14 W29G37    29.53F
CARLSBAD       FAIR      90  28  11 W25G35    29.55F
HOBBS          SUNNY     86  27  11 SW30G36   29.57F


$$




USA.gov is the U.S. government's official web portal to all federal, state and local government web resources and services.